Regional Weather Roundup
Issued by NWS

Home | Current Version | Previous Version | Text Only | Print | Product List | Glossary On
Versions: 1 2 3 4 5 6 7 8 9 10 11 12 13 14 15 16 17 18 19 20 21 22 23 24 25 26 27 28 29 30 31 32 33 34 35 36 37 38 39 40 41 42 43 44 45 46 47 48 49 50
000
ASUS43 KDTX 221701
RWRMI
MICHIGAN HOURLY REGIONAL WEATHER ROUNDUP
NATIONAL WEATHER SERVICE DETROIT/PONTIAC MI
100 PM EDT MON MAY 22 2017

NOTE: "FAIR" INDICATES FEW OR NO CLOUDS BELOW 12,000 FEET WITH NO
SIGNIFICANT WEATHER AND/OR OBSTRUCTION TO VISIBILITY.

MIZ047>049-052>055-059>063-066>070-074>076-081>083-221800-
SOUTHEAST LOWER MICHIGAN

CITY           SKY/WX    TMP DP  RH WIND       PRES   REMARKS
ADRIAN         MOSUNNY   62  43  49 W10G23    30.03F
ALMA           MOSUNNY   60  42  51 SW17G30   29.94S
ANN ARBOR      MOSUNNY   62  45  53 SW18G25   30.00F
BAD AXE        CLOUDY    55  42  63 W16G26    29.93S
CARO           MOSUNNY   58  44  58 SW20G28   29.94R
DETROIT CITY   MOSUNNY   62  45  53 W15G24    29.99F
DETROIT        MOSUNNY   63  45  51 SW15G25   30.01F
FLINT          MOSUNNY   63  43  48 W18G28    29.97S
GROSSE ILE     MOSUNNY   63  46  53 W9G20     30.00F
HILLSDALE      MOSUNNY   61  45  55 W10G20    30.01F
HOWELL         MOSUNNY   62  40  44 W12G23    29.98F

CITY           SKY/WX    TMP DP  RH WIND       PRES   REMARKS
JACKSON        SUNNY     63  44  50 W17       30.00S
LAMBERTVILLE   CLOUDY    63  45  50 W10G20    30.02F
LANSING        SUNNY     62  39  42 W20G26    29.98S
LAPEER         PTSUNNY   61  41  49 W15G25    29.97R
MASON          MOSUNNY   62  44  51 W13G21    29.98F
MONROE         MOSUNNY   64  45  50 W12G18    30.01F
PONTIAC        PTSUNNY   60  43  53 W12G23    29.97S
PORT HOPE        N/A     54  43  66 SW13G24   29.90S
PORT HURON     CLOUDY    59  41  51 SW9G18    29.98S
TRI CITIES     MOSUNNY   59  44  57 SW18G26   29.94F
MIDLAND        PTSUNNY   59  39  47 W15G26    29.92F
TROY           MOSUNNY   62  39  42 SW14G23   30.00F
SAGINAW HB     PTSUNNY   59  41  51 SW18      29.94S
$$
MIZ043>046-050>051-056>058-064>065-071>073-077>080-221800-
SOUTHWEST LOWER MICHIGAN

CITY           SKY/WX    TMP DP  RH WIND       PRES   REMARKS
BATTLE CREEK   SUNNY     63  42  46 W18G26    30.00F
BENTON HARBOR  SUNNY     62  40  44 SW16      30.02F
BIG RAPIDS     SUNNY     59  39  47 W21       29.91S
COLDWATER      MOSUNNY   63  44  49 W14G21    30.02F
FREMONT        FAIR      59  39  47 W12G23    29.95S
HOLLAND        SUNNY     59  44  57 SW22G28   30.00R
GRAND RAPIDS   MOSUNNY   61  43  51 W22G30    29.97S
IONIA          FAIR      62  42  48 W18G25    29.95S
KALAMAZOO      SUNNY     63  41  44 W14G23    30.02S
LUDINGTON      SUNNY     54  44  70 SW22G29   29.92S
MARSHALL       SUNNY     64  43  46 W15G22    30.00S
MOUNT PLEASANT MOSUNNY   59  40  49 SW16G25   29.91F
MUSKEGON       MOSUNNY   58  44  60 SW18G29   29.99R
SOUTH HAVEN    SUNNY     59  43  54 SW18      30.02F
$$
MIZ016>042-221800-
NORTHERN LOWER MICHIGAN

CITY           SKY/WX    TMP DP  RH WIND       PRES   REMARKS
ALPENA         CLOUDY    54  44  69 W17G23    29.85S
BEAVER ISLAND  CLOUDY    46  44  91 SW13G21   29.83S
BELLAIRE       CLOUDY    51  42  71 SW8       29.88S
CADILLAC       PTSUNNY   52  42  67 W14       29.88F
CHARLEVOIX     CLOUDY    49  44  84 SW14G21   29.89R
FRANKFORT      CLOUDY    51  42  71 SW14G20   29.89F
GAYLORD        CLOUDY    49  41  74 W17       29.86R
GRAYLING       CLOUDY    51  42  71 W12G20    29.88F
HARBOR SPRINGS CLOUDY    46  45  95 SW12G17   29.85R
HOUGHTON LAKE  CLOUDY    49  41  74 W16G26    29.90S
MANISTEE       SUNNY     56  43  61 SW14G23   29.90F
OSCODA         CLOUDY    58  43  57 W16G25    29.87F
PELLSTON       CLOUDY    50  46  86 SW14G29   29.84R FOG
ROGERS CITY    CLOUDY    54  44  69 SW16      29.84R
TRAVERSE CITY  CLOUDY    54  41  61 W10G22    29.87S
$$
MIZ007>008-015-221800-
EASTERN UPPER MICHIGAN

CITY           SKY/WX    TMP DP  RH WIND       PRES   REMARKS
KINROSS        LGT RAIN  48  47  96 SW9       29.79S
MACKINAC ISLAN LGT RAIN  46  46 100 SW12G26   29.82R
NEWBERRY       CLOUDY    51  50  97 W5        29.77S
S. S. MARIE    LGT RAIN  51  48  89 SW8       29.77S
MUNISING         N/A     53  50  89 VRB6      29.77R
$$
MIZ004>006-011>014-085-221800-
CENTRAL UPPER MICHIGAN

CITY           SKY/WX    TMP DP  RH WIND       PRES   REMARKS
MANISTIQUE     DRIZZLE   52  49  89 SW6       29.79S
ESCANABA       CLOUDY    53  44  71 SW14G21   29.81S
SAWYER-GWINN   CLOUDY    52  43  71 W8        29.77S
$$
MIZ001>003-009>011-084-221800-
WESTERN UPPER MICHIGAN

CITY           SKY/WX    TMP DP  RH WIND       PRES   REMARKS
IRON MOUNTAIN  CLOUDY    54  40  59 W13G20    29.79S
HOUGHTON       CLOUDY    50  42  74 W13       29.73R
COPPER HARBOR    N/A     52  44  74 VRB7      29.72S
IRONWOOD       CLOUDY    51  42  71 SW12      29.77S
$$

ABBREVIATIONS USED IN REMARKS
   TC - TEMPERATURE IN CELSIUS
  WCI - WIND CHILL INDEX
   HX - HEAT INDEX
  VSB - VISIBILITY





USA.gov is the U.S. government's official web portal to all federal, state and local government web resources and services.